Retour au catalogue

SL-14 DEB

ActifPO
NORAD 17274·DEBRIS·🇷🇺 Russia

Lancé Dec 18, 1986 depuis Plesetsk Cosmodrome

Loading…

Prochains Passages (prochaines 24 heures)

TLE

FraisSource: Space-Track

Époque: Sep 14, 2026, 15:26 UTC

1 17274U 86101J   26257.64334304  .00000488  00000-0  34686-3 0  9996
2 17274  82.5275 138.5171 0031519 343.9802  44.5573 13.95540810 11743

Suivez SL-14 DEB en temps réel avec AllMySat

Download on the App Store